• In Denmark
  • List of Countries
  • For 7 days
  • Water Temperature
  • Satellite Maps
  • Weather Map
  • Weather Widgets
  • user-avatar
    Login

    Hourly Weather Kaprun

    Today, 17 October, Tuesday

    Time Temperature Precipitation Wind Pressure Humidity
    00:00 +5°C° 0 mm 1 mps 603 mmHg 70%
    01:00 +5°C° 0 mm 1 mps 603 mmHg 68%
    02:00 +5°C° 0 mm 1 mps 603 mmHg 66%
    03:00 +5°C° 0 mm 1 mps 603 mmHg 65%
    04:00 +4°C° 0 mm 1 mps 602 mmHg 63%
    05:00 +4°C° 0 mm 1 mps 602 mmHg 62%
    06:00 +4°C° 0 mm 1 mps 602 mmHg 61%
    07:00 +4°C° 0 mm 1 mps 602 mmHg 60%
    08:00 +8°C° 0 mm 1 mps 604 mmHg 53%
    09:00 +11°C° 0 mm 1 mps 605 mmHg 45%
    10:00 +13°C° 0 mm 0 mps 607 mmHg 38%
    11:00 +15°C° 0 mm 1 mps 607 mmHg 37%
    12:00 +15°C° 0 mm 1 mps 606 mmHg 36%
    13:00 +16°C° 0 mm 2 mps 606 mmHg 35%
    14:00 +15°C° 0 mm 2 mps 606 mmHg 42%
    15:00 +14°C° 0 mm 1 mps 605 mmHg 50%
    16:00 +12°C° 0 mm 1 mps 604 mmHg 57%
    17:00 +10°C° 0 mm 1 mps 603 mmHg 63%
    18:00 +8°C° 0 mm 1 mps 602 mmHg 69%
    19:00 +6°C° 0 mm 1 mps 601 mmHg 75%
    20:00 +5°C° 0 mm 1 mps 600 mmHg 74%
    21:00 +5°C° 0 mm 1 mps 600 mmHg 73%
    22:00 +4°C° 0 mm 2 mps 600 mmHg 71%
    23:00 +3°C° 0 mm 2 mps 600 mmHg 71%

    Tomorrow, 18 October, Wednesday

    Time Temperature Precipitation Wind Pressure Humidity
    00:00 +4°C° 0 mm 1 mps 599 mmHg 70%
    01:00 +4°C° 0 mm 1 mps 599 mmHg 69%
    02:00 +4°C° 0 mm 1 mps 599 mmHg 68%
    03:00 +3°C° 0 mm 1 mps 598 mmHg 68%
    04:00 +3°C° 0 mm 1 mps 598 mmHg 68%
    05:00 +3°C° 0 mm 1 mps 598 mmHg 67%
    06:00 +3°C° 0 mm 1 mps 598 mmHg 66%
    07:00 +3°C° 0 mm 1 mps 598 mmHg 66%
    08:00 +6°C° 0 mm 1 mps 599 mmHg 57%
    09:00 +8°C° 0 mm 1 mps 600 mmHg 49%
    10:00 +11°C° 0 mm 1 mps 601 mmHg 40%
    11:00 +12°C° 0 mm 1 mps 601 mmHg 39%
    12:00 +12°C° 0 mm 1 mps 601 mmHg 38%
    13:00 +13°C° 0 mm 2 mps 601 mmHg 36%
    14:00 +12°C° 0 mm 2 mps 600 mmHg 43%
    15:00 +11°C° 0 mm 1 mps 600 mmHg 50%
    16:00 +11°C° 0 mm 1 mps 599 mmHg 57%
    17:00 +8°C° 0 mm 1 mps 598 mmHg 65%
    18:00 +6°C° 0 mm 1 mps 598 mmHg 73%
    19:00 +3°C° 0 mm 1 mps 597 mmHg 81%
    20:00 +3°C° 0 mm 1 mps 597 mmHg 78%
    21:00 +3°C° 0 mm 1 mps 597 mmHg 75%
    22:00 +3°C° 0 mm 1 mps 597 mmHg 73%
    23:00 +2°C° 0 mm 1 mps 597 mmHg 71%

    Day after tomorrow, 19 October, Thursday

    Time Temperature Precipitation Wind Pressure Humidity
    00:00 +2°C° 0 mm 1 mps 597 mmHg 69%
    01:00 +2°C° 0 mm 1 mps 596 mmHg 67%
    02:00 +2°C° 0 mm 1 mps 596 mmHg 66%
    03:00 +2°C° 0 mm 1 mps 596 mmHg 65%
    04:00 +2°C° 0 mm 1 mps 596 mmHg 64%
    05:00 +2°C° 0 mm 1 mps 596 mmHg 62%
    06:00 +2°C° 0 mm 1 mps 596 mmHg 61%
    07:00 +2°C° 0 mm 1 mps 596 mmHg 59%
    08:00 +4°C° 0 mm 1 mps 597 mmHg 52%
    09:00 +7°C° 0 mm 1 mps 598 mmHg 45%
    10:00 +10°C° 0 mm 1 mps 600 mmHg 38%
    11:00 +11°C° 0 mm 1 mps 600 mmHg 37%
    12:00 +12°C° 0 mm 1 mps 600 mmHg 36%
    13:00 +12°C° 0 mm 1 mps 600 mmHg 35%
    14:00 +12°C° 0 mm 1 mps 600 mmHg 42%
    15:00 +11°C° 0 mm 1 mps 599 mmHg 49%
    16:00 +10°C° 0 mm 1 mps 599 mmHg 57%
    17:00 +8°C° 0 mm 1 mps 598 mmHg 63%
    18:00 +5°C° 0 mm 1 mps 597 mmHg 70%
    19:00 +3°C° 0 mm 1 mps 597 mmHg 76%
    20:00 +3°C° 0 mm 1 mps 597 mmHg 73%
    21:00 +3°C° 0 mm 1 mps 597 mmHg 69%
    22:00 +3°C° 0 mm 1 mps 597 mmHg 66%
    23:00 +3°C° 0 mm 1 mps 597 mmHg 64%

    20 October, Friday

    Time Temperature Precipitation Wind Pressure Humidity
    00:00 +3°C° 0 mm 1 mps 597 mmHg 61%
    01:00 +3°C° 0 mm 1 mps 597 mmHg 59%
    02:00 +3°C° 0 mm 1 mps 597 mmHg 58%
    03:00 +2°C° 0 mm 1 mps 597 mmHg 57%
    04:00 +2°C° 0 mm 1 mps 597 mmHg 56%
    05:00 +2°C° 0 mm 1 mps 597 mmHg 55%
    06:00 +2°C° 0 mm 1 mps 597 mmHg 55%
    07:00 +2°C° 0 mm 1 mps 597 mmHg 54%
    08:00 +5°C° 0 mm 1 mps 599 mmHg 49%
    09:00 +8°C° 0 mm 1 mps 600 mmHg 44%
    10:00 +10°C° 0 mm 0 mps 602 mmHg 38%
    11:00 +10°C° 0 mm 0 mps 602 mmHg 38%
    12:00 +12°C° 0 mm 1 mps 602 mmHg 37%
    13:00 +13°C° 0 mm 1 mps 602 mmHg 36%
    14:00 +11°C° 0 mm 0 mps 602 mmHg 44%
    15:00 +10°C° 0 mm 0 mps 601 mmHg 52%
    16:00 +9°C° 0 mm 0 mps 601 mmHg 59%
    17:00 +7°C° 0 mm 0 mps 600 mmHg 64%
    18:00 +6°C° 0 mm 1 mps 600 mmHg 69%
    19:00 +4°C° 0 mm 1 mps 599 mmHg 74%
    20:00 +3°C° 0 mm 1 mps 599 mmHg 74%
    21:00 +3°C° 0 mm 1 mps 599 mmHg 74%
    22:00 +3°C° 0 mm 1 mps 599 mmHg 74%
    23:00 +3°C° 0 mm 1 mps 599 mmHg 75%

    21 October, Saturday

    Time Temperature Precipitation Wind Pressure Humidity
    00:00 +3°C° 0 mm 1 mps 599 mmHg 75%
    01:00 +3°C° 0 mm 1 mps 599 mmHg 75%
    02:00 +3°C° 0 mm 1 mps 599 mmHg 76%
    03:00 +3°C° 0 mm 1 mps 599 mmHg 76%
    04:00 +3°C° 0 mm 1 mps 598 mmHg 76%
    05:00 +3°C° 0 mm 1 mps 598 mmHg 75%
    06:00 +3°C° 0 mm 1 mps 598 mmHg 75%
    07:00 +3°C° 0 mm 1 mps 598 mmHg 75%
    08:00 +6°C° 0 mm 1 mps 600 mmHg 66%
    09:00 +8°C° 0 mm 1 mps 601 mmHg 58%
    10:00 +11°C° 0 mm 1 mps 602 mmHg 49%
    11:00 +12°C° 0 mm 1 mps 602 mmHg 47%
    12:00 +13°C° 0 mm 1 mps 602 mmHg 46%
    13:00 +14°C° 0 mm 2 mps 602 mmHg 44%
    14:00 +13°C° 0 mm 1 mps 601 mmHg 51%
    15:00 +12°C° 0 mm 1 mps 601 mmHg 59%
    16:00 +11°C° 0 mm 1 mps 600 mmHg 66%
    17:00 +8°C° 0 mm 1 mps 599 mmHg 74%
    18:00 +6°C° 0 mm 1 mps 598 mmHg 82%
    19:00 +3°C° 0 mm 0 mps 598 mmHg 89%
    20:00 +3°C° 0 mm 0 mps 598 mmHg 90%
    21:00 +3°C° 0 mm 0 mps 597 mmHg 91%
    22:00 +2°C° 0 mm 0 mps 597 mmHg 92%
    23:00 +2°C° 0 mm 0 mps 597 mmHg 93%

    22 October, Sunday

    Time Temperature Precipitation Wind Pressure Humidity
    00:00 +2°C° 0 mm 0 mps 597 mmHg 93%
    01:00 +3°C° 0 mm 1 mps 597 mmHg 94%
    02:00 +3°C° 0.2 mm 1 mps 597 mmHg 94%
    03:00 +2°C° 0.2 mm 0 mps 597 mmHg 94%
    04:00 +2°C° 0.2 mm 0 mps 597 mmHg 95%
    05:00 +3°C° 1 mm 1 mps 596 mmHg 95%
    06:00 +3°C° 1 mm 1 mps 596 mmHg 96%
    07:00 +3°C° 1 mm 1 mps 596 mmHg 97%
    08:00 +3°C° 1.4 mm 1 mps 596 mmHg 97%
    09:00 +3°C° 1.4 mm 1 mps 596 mmHg 97%
    10:00 +2°C° 1.4 mm 2 mps 596 mmHg 97%
    11:00 +2°C° 1.6 mm 2 mps 596 mmHg 96%
    12:00 +2°C° 1.6 mm 2 mps 596 mmHg 96%
    13:00 +1°C° 1.6 mm 2 mps 596 mmHg 95%
    14:00 +1°C° 1 mm 2 mps 596 mmHg 95%
    15:00 +1°C° 1 mm 2 mps 596 mmHg 94%
    16:00 -1°C° 1 mm 2 mps 596 mmHg 94%
    17:00 -1°C° 0.7 mm 2 mps 596 mmHg 94%
    18:00 -2°C° 0.7 mm 2 mps 596 mmHg 94%
    19:00 -2°C° 0.7 mm 2 mps 596 mmHg 95%
    20:00 -3°C° 0.4 mm 2 mps 596 mmHg 95%
    21:00 -3°C° 0.4 mm 2 mps 597 mmHg 95%
    22:00 -3°C° 0.4 mm 2 mps 597 mmHg 96%
    23:00 -4°C° 0 mm 2 mps 597 mmHg 95%
    Show more